www.pogodaiklimat.ru

Погода и климат >> Архив погоды >> Тунис >> Kasserine


ПОГОДА в Kasserine

  • Прогноз погоды в Kasserine
  • Монитор погоды в Kasserine
  • Климат города

АРХИВ ПОГОДЫ в Kasserine

Время (UTC), дата Ветер
(напр.,м/с)
 
Видим.   Явления Облачность Т
(С)
Тd
(С)
f
(%)
Тe
(С)
Тes
(С)
Комфортность P
(гПа)
Po
(гПа)
Тmin
(С)
Tmax
(С)
R
(мм)
R24
(мм)
S
(см)
03 19.02 0-9
{13}
н/о н/о +7.8 -0.2 57 1016.9 934.0
06 19.02 0-15
{15}
10 км 8/1 1000 м
[Cu Sc]
+6.7 +1.6 70 1017.5 934.3 +6.5 2
09 19.02 0-13
{15}
10 км 5/3 1500 м
[Sc Ac und]
+8.5 +3.1 69 1017.5 934.8
12 19.02 0-7
{14}
10 км 5/3 1500 м
[Sc Ac und]
+12.8 +3.5 53 1015.3 934.0
15 19.02 0-9
{9}
10 км 9/6 1000 м
[Cu Sc Ac und]
+12.0 +6.5 69 1013.9 932.5
18 19.02 0-3
{9}
10 км 10/8 1000 м
[Cu Sc Ac und]
+9.9 +6.4 79 1014.6 932.6 +13.6
21 19.02 0-2
{4}
н/о н/о +9.1 +7.5 90 1014.8 932.6
00 20.02 0-3
{4}
н/о н/о +8.3 +7.4 94 1014.2 931.8
03 20.02 0-5
{5}
н/о н/о +7.8 +6.9 94 1012.9 930.5
06 20.02 0-9
{9}
10 км 8/5 1000 м
[Cu Sc Ac und]
+7.7 +4.8 82 1012.7 930.2 +6.7
09 20.02 0-13
{16}
10 км 3/1 1000 м
[Cu med, cong Ac und]
+9.0 +3.2 67 1012.4 930.3
12 20.02 0-10
{16}
10 км 4/3 1000 м
[Cu med, cong Ac und]
+12.4 -0.5 41 1009.8 928.8
15 20.02 0-9
{12}
10 км 6/3 1000 м
[Cu Sc Ci sp]
+13.4 +1.4 44 1007.3 926.8
18 20.02 0-5
{12}
10 км 9/3 1000 м
[Cu Sc Ci sp]
+11.3 +1.5 51 1007.0 925.9 +13.7
21 20.02 0-12
{14}
<100 м н/о +10.1 +4.5 68 1007.4 926.0
00 21.02 0-12
{15}
н/о н/о +9.1 +5.1 76 1007.0 925.4
03 21.02 0-8
{15}
н/о н/о +7.5 +5.6 88 1005.6 923.7
06 21.02 0 10 км 6/4 1500 м
[Sc Ci sp]
+7.6 +2.9 72 1005.2 923.3 +6.9
09 21.02 0-8
{14}
10 км 9/5 1500 м
[Sc Ac trans]
+8.9 +2.7 65 1006.1 924.5
12 21.02 0-6
{14}
10 км 9/4 1500 м
[Sc Ac und]
+12.5 +1.8 48 1004.3 923.8
15 21.02 0-3
{8}
10 км 9/3 1000 м
[Cu Sc Ac und]
+13.9 +1.2 42 1001.5 921.6
18 21.02 0-8
{11}
10 км 10/4 1500 м
[Sc Ac und]
+10.8 +2.4 56 1002.4 921.6 +14.5
21 21.02 0-5
{10}
н/о н/о +9.1 +3.7 69 1002.8 921.5
00 22.02 0-5
{10}
н/о н/о +7.4 +4.0 79 1002.1 920.4
03 22.02 0-4
{5}
н/о н/о +6.9 +5.1 88 1000.4 918.7
06 22.02 0-8
{8}
10 км 10/4 1500 м
[Sc Ac und]
+5.5 +5.1 97 1001.6 919.4 +5.5 1
09 22.02 0-11
{11}
10 км {дождь} 9/4 1500 м
[Sc Ac und]
+5.4 +3.9 90 1002.5 920.2 0.4
12 22.02 0-13
{15}
10 км {дождь} 9/4 1500 м
[Sc Ac und]
+6.5 +4.2 85 1002.2 920.2 1
18 22.02 0-13
{13}
8000 м слабый дождь 10/4 1500 м
[Sc Ac und]
+5.7 +2.4 79 1002.4 920.2 +7.7 0.4
21 22.02 0-8
{9}
н/о н/о +3.5 +3.4 99 1004.5 921.5 6
00 23.02 0-9
{11}
н/о н/о +3.3 +2.7 96 1004.0 921.0 3
03 23.02 0-15
{16}
н/о н/о +3.7 +2.2 90 1001.9 919.1
06 23.02 0-11
{20}
10 км 5/3 1500 м
[Sc Ac trans]
+3.5 +0.2 79 1003.8 920.8 +2.4
09 23.02 0-8
{21}
10 км 6/4 1500 м
[Sc Ac und]
+6.3 +1.6 72 1004.8 922.5
12 23.02 0-8
{21}
10 км 6/4 1500 м
[Sc Ac und]
+9.2 +2.1 61 1004.2 922.8
15 23.02 0-8
{10}
10 км 8/4 1000 м
[Cu Sc Ac und]
+9.7 +0.3 52 1003.6 922.3
18 23.02 0-6
{10}
10 км {дождь} 10/6 1000 м
[Cu Sc Ac und]
+7.2 +3.3 76 1006.3 924.2 +11.4 0.2
21 23.02 0-4
{6}
н/о н/о +6.3 +3.8 84 1008.3 925.8 0.2
00 24.02 0-5
{8}
н/о н/о +3.8 +2.3 90 1009.9 926.5
03 24.02 0-3
{5}
н/о н/о +3.8 +2.6 92 1008.9 925.6
06 24.02 0-2
{5}
10 км 4/0
[Ac und]
+1.6 +0.7 94 1010.6 926.5 +1.5 0.4
09 24.02 штиль 0-2
{4}
10 км 5/1 1500 м
[Sc Ac und]
+8.0 +3.3 72 +7 +13 1008.9 926.8
12 24.02 0-8
{10}
10 км 8/3 1500 м
[Sc Ac und]
+11.3 +3.3 58 1006.5 925.5
15 24.02 0-9
{10}
10 км 10/6 1000 м
[Cu Sc Ac und]
+13.0 +2.3 48 1004.4 924.0
18 24.02 0-2
{11}
10 км 10/6 1000 м
[Cu Sc Ac und]
+11.3 +3.6 59 1005.0 924.1 +13.2
21 24.02 0-3
{5}
н/о н/о +9.2 +5.4 77 1005.2 923.8
00 25.02 0-2
{5}
н/о н/о +7.6 +5.7 88 1005.9 924.0
03 25.02 0-10
{14}
н/о н/о +6.3 +5.4 94 1006.6 924.2
06 25.02 0-12
{14}
10 км 8/6 1000 м
[Cu Sc Ac und]
+6.1 +5.1 93 1008.0 925.5 +5.9
09 25.02 0-13
{14}
10 км 5/4 1000 м
[Cu Sc Ac und]
+8.4 +4.2 75 1008.1 926.2
12 25.02 0-13
{17}
10 км 5/4 1000 м
[Cu Sc Ac und]
+10.9 +1.7 53 1008.0 926.7
15 25.02 0-11
{14}
10 км 6/5 1000 м
[Cu Sc Ac und]
+11.7 -1.1 41 1007.7 926.6
18 25.02 0-6
{14}
10 км 5/4 1000 м
[Cu Sc Ac und]
+9.6 -0.6 49 1009.4 927.6 +12.2
21 25.02 0-11
{12}
н/о н/о +7.0 +0.5 63 1011.1 928.5

 

Местоположение метеостанции Kasserine (Тунис): широта 35.15 долгота 8.45 высота над уровнем моря 707 м.

В архиве по умолчанию представлена погода в Kasserine за последнюю неделю. Архивные данные за месяц целиком и за предыдущие месяцы, начиная с января 2011 года, Вы можете получить, выбрав интересующий диапазон дат из раскрывающегося списка и нажав кнопку "Ввод!".

Внимание! Время в таблицах - всемирное. Для получения местного времени необходимо прибавить поправку, которая в Kasserine равна 1 ч.

Смотрите также архив погоды в соседних городах и на ближайших метеорологических станциях:

Погода в Tebessa (Алжир) (42 км)
Погода в Thala (Тунис) (49 км)
Погода в Gafsa (Тунис) (88 км)
Погода в Sidi Bouzid (Тунис) (95 км)
Погода в El Kef (Тунис) (111 км)
Погода в Khenchella (Алжир) (129 км)
Погода в Siliana (Тунис) (132 км)
Погода в Souk Ahras (Алжир) (133 км)
Погода в Tozeur (Тунис) (139 км)
Погода в Oum El Bouaghi (Алжир) (145 км)

Пояснения к столбцам:

Ветер - указаны скорость ветра в м/с - средняя за 10 мин, порывы в срок и между сроками (в фигурных скобках) и направление, откуда дует ветер: С - северный, СВ - северо-восточный, В - восточный, ЮВ - юго-восточный, Ю - южный, ЮЗ - юго-западный, З - западный, СЗ - северо-западный.
Видимость - горизонтальная дальность видимости в метрах или километрах. При видимости от 1 до 10 км при отсутствии осадков обычно наблюдается дымка, при ухудшении видимости до 1 км и менее - туман. В сухую погоду видимость может ухудшаться дымом, пылью или мглою.
Явления - указаны атмосферные явления, наблюдавшиеся в срок или в последний час перед сроком; фигурными скобками обозначены явления, наблюдавшиеся между сроками (за 1-3 часа до срока); квадратными скобками обозначены град или гололедные отложения с указанием их диаметра в мм.
Облачность - указаны через наклонную черту общая и нижняя облачность в баллах и высота нижней границы облаков в метрах; квадратными скобками обозначены формы облаков: Ci - перистые, Cs - перисто-слоистые, Cc - перисто-кучевые, Ac - высококучевые, As - высокослоистые, Sc - слоисто-кучевые, Ns - слоисто-дождевые, Cu - кучевые, Cb - кучево-дождевые. Подробнее классификацию облаков см. в Атласе облаков (PDF).
T - Температура воздуха - температура, измеренная на высоте 2 м над землей.
Td - Температура точки росы - температура, при понижении до которой содержащийся в воздухе водяной пар достигнет насыщения.
f - Относительная влажность воздуха - влажноcть воздуха, измеренная на высоте 2 м над землей.
Te - Эффективная температура - температура, которую ощущает одетый по сезону человек в тени. Характеристика душности погоды. При расчете учитывается влияние влажности воздуха и скорости ветра на теплоощущения человека.
Tes - Эффективная температура на солнце - температура, которую ощущает человек, с поправкой на солнечный нагрев. Характеристика знойности погоды. Зависит от высоты солнца над горизонтом, облачности и скорости ветра. Ночью, в пасмурную погоду, а также при ветре 12 м/с и более поправка равна нулю.
P - Атмосферное давление - приведенное к уровню моря атмосферное давление.
Po - Атмосферное давление - измеренное на уровне метеостанции атмосферное давление.
Tmin - Минимальная температура - минимум температуры воздуха на высоте 2 м над землей.
Tmax - Максимальная температура - максимум температуры воздуха на высоте 2 м над землей.
R - Количество осадков - Количество выпавших осадков за период времени, мм. При наведении курсора мыши на число - период времени, за который выпало указанное количество осадков.
R24 - Количество осадков - Количество выпавших осадков за 24 часа, мм.
S - Снежный покров - Высота снежного покрова, см. При наведении курсора мыши на число - состояние снежного покрова и степень покрытия местности в баллах.